| time (UTC) | temp F | wind direction | speed MPH | gust MPH | rain 1hr in | rain 24hr in | rain mn in | humidity % | barometer mb |
| 20260507134505 | 66 | 295 | 3.0 | 8.0 | 0.33 | 1.52 | 0.79 | 97 | 1010.2 |
| 20260507133625 | 67 | 297 | 2.0 | 5.0 | 0.26 | 1.42 | 0.69 | 97 | 1010.1 |
| 20260507132727 | 67 | 353 | 0.0 | 1.0 | 0.28 | 1.37 | 0.64 | 98 | 1009.7 |
| 20260507131805 | 67 | 28 | 0.0 | 1.0 | 0.36 | 1.34 | 0.61 | 98 | 1009.3 |
| 20260507130925 | 67 | 330 | 0.0 | 1.0 | 0.39 | 1.32 | 0.59 | 98 | 1009.4 |
| 20260507130034 | 66 | 309 | 0.0 | 1.0 | 0.33 | 1.26 | 0.54 | 98 | 1009.7 |
| 20260507125404 | 66 | 307 | 0.0 | 2.0 | 0.31 | 1.24 | 0.51 | 98 | 1009.7 |
| 20260507124505 | 66 | 301 | 1.0 | 2.0 | 0.26 | 1.19 | 0.46 | 97 | 1009.9 |
| 20260507123605 | 66 | 281 | 0.0 | 1.0 | 0.23 | 1.16 | 0.43 | 97 | 1009.7 |
| 20260507122726 | 66 | 317 | 1.0 | 3.0 | 0.16 | 1.09 | 0.36 | 97 | 1009.6 |
| 20260507121803 | 66 | 317 | 1.0 | 3.0 | 0.05 | 0.98 | 0.25 | 97 | 1009.9 |
| 20260507120905 | 66 | 311 | 0.0 | 3.0 | 0.01 | 0.93 | 0.20 | 97 | 1009.4 |
| 20260507120016 | 66 | 269 | 0.0 | 2.0 | 0.02 | 0.93 | 0.20 | 97 | 1009.3 |
| 20260507115404 | 66 | 297 | 0.0 | 1.0 | 0.03 | 0.93 | 0.20 | 97 | 1009.0 |
| 20260507114504 | 66 | 93 | 0.0 | 4.0 | 0.05 | 0.93 | 0.20 | 97 | 1008.9 |
| 20260507113604 | 66 | 143 | 1.0 | 5.0 | 0.07 | 0.93 | 0.20 | 97 | 1008.6 |
| 20260507112724 | 66 | 151 | 1.0 | 5.0 | 0.08 | 0.93 | 0.20 | 97 | 1008.7 |
| 20260507111804 | 66 | 135 | 1.0 | 7.0 | 0.08 | 0.93 | 0.20 | 97 | 1008.8 |
| 20260507110904 | 66 | 152 | 3.0 | 9.0 | 0.08 | 0.92 | 0.19 | 97 | 1009.2 |
| 20260507110015 | 66 | 130 | 2.0 | 10.0 | 0.09 | 0.91 | 0.18 | 98 | 1009.5 |
| 20260507105406 | 66 | 133 | 1.0 | 4.0 | 0.08 | 0.90 | 0.17 | 98 | 1009.7 |
| 20260507104504 | 66 | 136 | 2.0 | 13.0 | 0.09 | 0.88 | 0.16 | 98 | 1009.8 |
| 20260507103604 | 66 | 134 | 1.0 | 6.0 | 0.07 | 0.86 | 0.13 | 98 | 1010.0 |
| 20260507102705 | 66 | 140 | 1.0 | 6.0 | 0.06 | 0.85 | 0.12 | 98 | 1010.1 |
| 20260507101804 | 66 | 133 | 1.0 | 5.0 | 0.06 | 0.85 | 0.12 | 98 | 1010.1 |
| 20260507100904 | 65 | 104 | 0.0 | 1.0 | 0.05 | 0.84 | 0.11 | 97 | 1009.8 |
| 20260507100004 | 65 | 124 | 0.0 | 1.0 | 0.03 | 0.82 | 0.09 | 97 | 1009.9 |
| 20260507095404 | 65 | 110 | 0.0 | 1.0 | 0.03 | 0.82 | 0.09 | 97 | 1009.9 |
| 20260507094504 | 65 | 99 | 0.0 | 2.0 | 0.01 | 0.79 | 0.06 | 97 | 1009.9 |
| 20260507093603 | 65 | 145 | 0.0 | 1.0 | 0.02 | 0.79 | 0.06 | 97 | 1010.1 |
| 20260507092704 | 65 | 114 | 0.0 | 1.0 | 0.02 | 0.79 | 0.06 | 97 | 1010.1 |
| 20260507091804 | 65 | 169 | 0.0 | 1.0 | 0.02 | 0.79 | 0.06 | 97 | 1010.3 |
| 20260507090904 | 65 | 275 | 0.0 | 1.0 | 0.02 | 0.79 | 0.06 | 97 | 1010.6 |
| 20260507090032 | 65 | 275 | 0.0 | 1.0 | 0.03 | 0.79 | 0.06 | 97 | 1010.6 |
| 20260507085405 | 65 | 309 | 0.0 | 1.0 | 0.03 | 0.79 | 0.06 | 97 | 1010.5 |
| 20260507084505 | 65 | 0 | 0.0 | 0.0 | 0.02 | 0.78 | 0.05 | 97 | 1010.6 |
| 20260507083604 | 65 | 0 | 0.0 | 0.0 | 0.01 | 0.77 | 0.04 | 97 | 1010.6 |
| 20260507082704 | 65 | 0 | 0.0 | 0.0 | 0.01 | 0.77 | 0.04 | 97 | 1010.6 |
| 20260507081804 | 65 | 311 | 0.0 | 1.0 | 0.01 | 0.77 | 0.04 | 97 | 1010.7 |
| 20260507080904 | 65 | 318 | 0.0 | 2.0 | 0.01 | 0.77 | 0.04 | 97 | 1010.5 |
| 20260507080017 | 65 | 301 | 0.0 | 2.0 | 0.01 | 0.76 | 0.03 | 97 | 1010.2 |
| 20260507075405 | 65 | 289 | 0.0 | 3.0 | 0.01 | 0.76 | 0.03 | 97 | 1010.4 |
| 20260507074525 | 65 | 302 | 1.0 | 4.0 | 0.01 | 0.76 | 0.03 | 97 | 1010.7 |
| 20260507073604 | 65 | 296 | 2.0 | 3.0 | 0.01 | 0.76 | 0.03 | 97 | 1010.8 |
| 20260507072704 | 65 | 283 | 1.0 | 3.0 | 0.01 | 0.76 | 0.03 | 97 | 1010.9 |
| 20260507071804 | 66 | 290 | 2.0 | 6.0 | 0.01 | 0.76 | 0.03 | 97 | 1010.9 |
| 20260507070904 | 66 | 305 | 3.0 | 6.0 | 0.01 | 0.76 | 0.03 | 97 | 1011.0 |
| 20260507070026 | 66 | 297 | 2.0 | 6.0 | 0.00 | 0.75 | 0.02 | 97 | 1011.2 |
| 20260507065405 | 66 | 297 | 2.0 | 4.0 | 0.00 | 0.75 | 0.02 | 97 | 1011.3 |
| 20260507064504 | 66 | 299 | 1.0 | 4.0 | 0.00 | 0.75 | 0.02 | 97 | 1011.3 |
| 20260507063607 | 66 | 293 | 1.0 | 4.0 | 0.00 | 0.75 | 0.02 | 97 | 1011.2 |
| 20260507062714 | 66 | 289 | 2.0 | 4.0 | 0.00 | 0.75 | 0.02 | 97 | 1011.3 |
| 20260507061804 | 66 | 293 | 2.0 | 3.0 | 0.00 | 0.75 | 0.02 | 97 | 1011.5 |
| 20260507060905 | 66 | 305 | 1.0 | 3.0 | 0.00 | 0.75 | 0.02 | 97 | 1011.4 |
| 20260507060005 | 66 | 306 | 0.0 | 2.0 | 0.00 | 0.75 | 0.02 | 97 | 1011.1 |
| 20260507055424 | 66 | 266 | 0.0 | 1.0 | 0.00 | 0.75 | 0.02 | 97 | 1011.1 |
| 20260507054525 | 66 | 0 | 0.0 | 0.0 | 0.00 | 0.75 | 0.02 | 97 | 1010.9 |
| 20260507053604 | 66 | 144 | 0.0 | 1.0 | 0.01 | 0.75 | 0.02 | 97 | 1011.0 |
| 20260507052704 | 66 | 128 | 0.0 | 1.0 | 0.01 | 0.75 | 0.02 | 96 | 1011.1 |
| 20260507051805 | 65 | 128 | 0.0 | 1.0 | 0.01 | 0.75 | 0.02 | 96 | 1011.0 |
| 20260507050904 | 65 | 128 | 0.0 | 1.0 | 0.01 | 0.75 | 0.02 | 96 | 1011.0 |
| 20260507050006 | 65 | 126 | 0.0 | 1.0 | 0.02 | 0.75 | 0.02 | 96 | 1010.8 |
| 20260507045405 | 65 | 125 | 0.0 | 2.0 | 0.05 | 0.75 | 0.02 | 96 | 1010.9 |
| 20260507044504 | 65 | 0 | 0.0 | 0.0 | 0.07 | 0.75 | 0.02 | 96 | 1011.3 |
| 20260507043604 | 65 | 321 | 0.0 | 2.0 | 0.11 | 0.74 | 0.01 | 96 | 1011.8 |
| 20260507042704 | 65 | 318 | 2.0 | 5.0 | 0.20 | 0.74 | 0.01 | 96 | 1012.0 |
| 20260507041805 | 66 | 322 | 1.0 | 3.0 | 0.27 | 0.74 | 0.01 | 96 | 1011.6 |
| 20260507040904 | 66 | 113 | 2.0 | 7.0 | 0.30 | 0.74 | 0.01 | 96 | 1011.6 |
| 20260507040004 | 66 | 140 | 1.0 | 6.0 | 0.33 | 0.73 | 0.00 | 96 | 1012.0 |
| 20260507035404 | 65 | 134 | 1.0 | 5.0 | 0.33 | 0.70 | 0.70 | 95 | 1012.4 |
| 20260507034504 | 66 | 119 | 2.0 | 7.0 | 0.37 | 0.68 | 0.68 | 95 | 1012.2 |
| 20260507033613 | 66 | 115 | 0.0 | 4.0 | 0.42 | 0.63 | 0.63 | 95 | 1013.4 |
| 20260507032703 | 66 | 319 | 1.0 | 3.0 | 0.38 | 0.54 | 0.54 | 95 | 1013.6 |
| 20260507031804 | 66 | 313 | 0.0 | 2.0 | 0.34 | 0.47 | 0.47 | 95 | 1013.7 |
| 20260507030903 | 66 | 117 | 1.0 | 4.0 | 0.32 | 0.44 | 0.44 | 95 | 1013.0 |
| 20260507030005 | 66 | 317 | 1.0 | 3.0 | 0.29 | 0.40 | 0.40 | 94 | 1013.8 |
| 20260507025404 | 66 | 120 | 0.0 | 3.0 | 0.28 | 0.37 | 0.37 | 94 | 1014.0 |
| 20260507024504 | 66 | 300 | 0.0 | 3.0 | 0.24 | 0.31 | 0.31 | 94 | 1013.7 |
| 20260507023618 | 67 | 297 | 2.0 | 7.0 | 0.17 | 0.20 | 0.20 | 94 | 1014.4 |
| 20260507022725 | 67 | 296 | 2.0 | 6.0 | 0.15 | 0.16 | 0.17 | 93 | 1014.2 |
| 20260507021825 | 67 | 292 | 3.0 | 9.0 | 0.13 | 0.13 | 0.13 | 93 | 1013.6 |
| 20260507020926 | 68 | 309 | 4.0 | 9.0 | 0.12 | 0.12 | 0.12 | 92 | 1013.2 |
| 20260507020004 | 69 | 295 | 3.0 | 9.0 | 0.11 | 0.11 | 0.11 | 92 | 1013.0 |
| 20260507015404 | 70 | 312 | 2.0 | 5.0 | 0.09 | 0.09 | 0.09 | 91 | 1012.5 |
| 20260507014504 | 70 | 319 | 3.0 | 8.0 | 0.07 | 0.07 | 0.07 | 89 | 1012.2 |
| 20260507013603 | 71 | 320 | 2.0 | 5.0 | 0.03 | 0.03 | 0.03 | 85 | 1012.1 |
| 20260507012704 | 74 | 265 | 0.0 | 2.0 | 0.01 | 0.01 | 0.01 | 82 | 1011.8 |
| 20260507011804 | 77 | 356 | 0.0 | 1.0 | 0.00 | 0.00 | 0.00 | 75 | 1010.9 |
| 20260507010904 | 79 | 84 | 0.0 | 2.0 | 0.00 | 0.00 | 0.00 | 64 | 1010.8 |
| 20260507010004 | 79 | 347 | 0.0 | 2.0 | 0.00 | 0.00 | 0.00 | 64 | 1010.7 |
| 20260507005404 | 79 | 206 | 0.0 | 2.0 | 0.00 | 0.00 | 0.00 | 63 | 1010.6 |
| 20260507004504 | 80 | 129 | 0.0 | 3.0 | 0.00 | 0.00 | 0.00 | 62 | 1010.5 |
| 20260507003625 | 80 | 125 | 0.0 | 3.0 | 0.00 | 0.00 | 0.00 | 61 | 1010.6 |
| 20260507002726 | 80 | 250 | 0.0 | 2.0 | 0.00 | 0.00 | 0.00 | 61 | 1010.7 |
| 20260507001803 | 80 | 217 | 0.0 | 3.0 | 0.00 | 0.00 | 0.00 | 60 | 1010.6 |
| 20260507000905 | 80 | 62 | 1.0 | 3.0 | 0.00 | 0.00 | 0.00 | 60 | 1010.8 |
| 20260507000004 | 81 | 105 | 0.0 | 3.0 | 0.00 | 0.00 | 0.00 | 60 | 1010.8 |
| 20260506235426 | 81 | 152 | 0.0 | 3.0 | 0.00 | 0.00 | 0.00 | 60 | 1010.6 |
| 20260506234503 | 81 | 124 | 1.0 | 5.0 | 0.00 | 0.00 | 0.00 | 60 | 1010.6 |
| 20260506233604 | 81 | 118 | 1.0 | 3.0 | 0.00 | 0.00 | 0.00 | 60 | 1010.6 |
| 20260506232725 | 82 | 115 | 1.0 | 2.0 | 0.00 | 0.00 | 0.00 | 60 | 1010.6 |
| 20260506231804 | 82 | 129 | 1.0 | 5.0 | 0.00 | 0.00 | 0.00 | 59 | 1010.7 |
| 20260506230904 | 83 | 156 | 1.0 | 4.0 | 0.00 | 0.00 | 0.00 | 57 | 1010.7 |
| 20260506230025 | 84 | 190 | 1.0 | 4.0 | 0.00 | 0.00 | 0.00 | 56 | 1010.8 |
| 20260506225403 | 85 | 173 | 1.0 | 4.0 | 0.00 | 0.00 | 0.00 | 55 | 1010.7 |
| 20260506224504 | 85 | 178 | 2.0 | 8.0 | 0.00 | 0.00 | 0.00 | 54 | 1010.6 |
| 20260506223604 | 86 | 157 | 2.0 | 6.0 | 0.00 | 0.00 | 0.00 | 53 | 1010.7 |
| 20260506222704 | 86 | 132 | 2.0 | 8.0 | 0.00 | 0.00 | 0.00 | 55 | 1010.8 |
| 20260506221824 | 87 | 137 | 1.0 | 6.0 | 0.00 | 0.00 | 0.00 | 55 | 1010.9 |
| 20260506221011 | 86 | 199 | 1.0 | 4.0 | 0.00 | 0.00 | 0.00 | 54 | 1011.0 |
| 20260506220005 | 85 | 257 | 2.0 | 9.0 | 0.00 | 0.00 | 0.00 | 56 | 1011.0 |
| 20260506215405 | 86 | 262 | 2.0 | 9.0 | 0.00 | 0.00 | 0.00 | 54 | 1011.1 |
| 20260506214504 | 86 | 278 | 2.0 | 5.0 | 0.00 | 0.00 | 0.00 | 53 | 1011.2 |
| 20260506213624 | 86 | 288 | 2.0 | 6.0 | 0.00 | 0.00 | 0.00 | 54 | 1011.2 |
| 20260506212705 | 86 | 276 | 1.0 | 4.0 | 0.00 | 0.00 | 0.00 | 54 | 1011.4 |
| 20260506211804 | 85 | 247 | 2.0 | 5.0 | 0.00 | 0.00 | 0.00 | 55 | 1011.3 |
| 20260506210904 | 84 | 292 | 5.0 | 9.0 | 0.00 | 0.00 | 0.00 | 56 | 1011.3 |
| 20260506210004 | 85 | 288 | 4.0 | 10.0 | 0.00 | 0.00 | 0.00 | 55 | 1011.4 |
| 20260506205404 | 85 | 270 | 3.0 | 9.0 | 0.00 | 0.00 | 0.00 | 55 | 1011.7 |
| 20260506204534 | 84 | 283 | 4.0 | 10.0 | 0.00 | 0.00 | 0.00 | 56 | 1011.7 |
| 20260506203603 | 84 | 294 | 5.0 | 10.0 | 0.00 | 0.00 | 0.00 | 56 | 1011.7 |
| 20260506202725 | 83 | 291 | 6.0 | 11.0 | 0.00 | 0.00 | 0.00 | 56 | 1011.7 |
| 20260506201805 | 84 | 283 | 4.0 | 10.0 | 0.00 | 0.00 | 0.00 | 55 | 1011.9 |
| 20260506200904 | 84 | 273 | 5.0 | 11.0 | 0.00 | 0.00 | 0.00 | 53 | 1012.1 |
| 20260506200004 | 85 | 285 | 3.0 | 8.0 | 0.00 | 0.00 | 0.00 | 56 | 1012.1 |
| 20260506195404 | 84 | 278 | 5.0 | 14.0 | 0.00 | 0.00 | 0.00 | 57 | 1012.3 |
| 20260506194509 | 83 | 277 | 5.0 | 11.0 | 0.00 | 0.00 | 0.00 | 54 | 1012.4 |
| 20260506193603 | 83 | 277 | 3.0 | 11.0 | 0.00 | 0.00 | 0.00 | 56 | 1012.8 |
| 20260506192703 | 82 | 257 | 5.0 | 14.0 | 0.00 | 0.00 | 0.00 | 60 | 1012.9 |
| 20260506191805 | 83 | 160 | 3.0 | 12.0 | 0.00 | 0.00 | 0.00 | 60 | 1012.4 |
| 20260506190904 | 82 | 138 | 4.0 | 12.0 | 0.00 | 0.00 | 0.00 | 61 | 1012.7 |
| 20260506190025 | 81 | 184 | 3.0 | 9.0 | 0.00 | 0.00 | 0.00 | 61 | 1012.9 |
| 20260506185403 | 81 | 267 | 3.0 | 9.0 | 0.00 | 0.00 | 0.00 | 63 | 1013.1 |
| 20260506184546 | 80 | 251 | 3.0 | 10.0 | 0.00 | 0.00 | 0.00 | 64 | 1013.3 |
| 20260506183604 | 80 | 250 | 4.0 | 8.0 | 0.00 | 0.00 | 0.00 | 65 | 1013.3 |
| 20260506182705 | 80 | 278 | 3.0 | 11.0 | 0.00 | 0.00 | 0.00 | 65 | 1013.3 |
| 20260506181825 | 80 | 228 | 3.0 | 9.0 | 0.00 | 0.00 | 0.00 | 65 | 1013.2 |
| 20260506180924 | 79 | 241 | 2.0 | 6.0 | 0.00 | 0.00 | 0.00 | 67 | 1013.4 |
| 20260506180005 | 78 | 230 | 2.0 | 8.0 | 0.00 | 0.00 | 0.00 | 68 | 1013.7 |
| 20260506175404 | 77 | 182 | 3.0 | 10.0 | 0.00 | 0.00 | 0.00 | 70 | 1013.5 |
| 20260506174528 | 77 | 267 | 4.0 | 13.0 | 0.00 | 0.00 | 0.00 | 73 | 1013.9 |
| 20260506173624 | 76 | 180 | 3.0 | 10.0 | 0.00 | 0.00 | 0.00 | 71 | 1014.2 |
| 20260506172705 | 76 | 218 | 1.0 | 4.0 | 0.00 | 0.00 | 0.00 | 73 | 1014.5 |
| 20260506171803 | 75 | 188 | 2.0 | 10.0 | 0.00 | 0.00 | 0.00 | 73 | 1014.8 |
| 20260506170903 | 76 | 124 | 3.0 | 9.0 | 0.00 | 0.00 | 0.00 | 73 | 1015.0 |
| 20260506170004 | 74 | 249 | 3.0 | 9.0 | 0.00 | 0.00 | 0.00 | 76 | 1015.3 |
| 20260506165404 | 74 | 224 | 3.0 | 9.0 | 0.00 | 0.00 | 0.00 | 77 | 1015.2 |
| 20260506164505 | 73 | 155 | 2.0 | 7.0 | 0.00 | 0.00 | 0.00 | 79 | 1015.0 |
| 20260506163603 | 72 | 254 | 2.0 | 8.0 | 0.00 | 0.00 | 0.00 | 79 | 1015.3 |
| 20260506162703 | 72 | 135 | 2.0 | 6.0 | 0.00 | 0.00 | 0.00 | 81 | 1015.2 |
| 20260506161817 | 71 | 239 | 2.0 | 6.0 | 0.00 | 0.00 | 0.00 | 81 | 1015.4 |
| 20260506160903 | 71 | 265 | 2.0 | 8.0 | 0.00 | 0.00 | 0.00 | 81 | 1015.6 |
| 20260506160006 | 70 | 259 | 3.0 | 8.0 | 0.00 | 0.00 | 0.00 | 82 | 1015.5 |
| 20260506155404 | 70 | 251 | 2.0 | 6.0 | 0.00 | 0.00 | 0.00 | 82 | 1015.4 |
| 20260506154524 | 69 | 186 | 1.0 | 3.0 | 0.00 | 0.00 | 0.00 | 83 | 1015.5 |
| 20260506153603 | 69 | 236 | 2.0 | 6.0 | 0.00 | 0.00 | 0.00 | 83 | 1015.4 |
| 20260506152704 | 69 | 190 | 2.0 | 5.0 | 0.00 | 0.00 | 0.00 | 82 | 1015.3 |
| 20260506151804 | 68 | 241 | 2.0 | 5.0 | 0.00 | 0.00 | 0.00 | 82 | 1015.2 |
| 20260506150903 | 68 | 166 | 1.0 | 5.0 | 0.00 | 0.00 | 0.00 | 83 | 1015.0 |
| 20260506150005 | 68 | 218 | 2.0 | 7.0 | 0.00 | 0.00 | 0.00 | 83 | 1015.0 |
| 20260506145405 | 68 | 202 | 1.0 | 7.0 | 0.00 | 0.00 | 0.00 | 83 | 1015.0 |
| 20260506144503 | 68 | 133 | 2.0 | 8.0 | 0.00 | 0.00 | 0.00 | 83 | 1014.7 |
| 20260506143603 | 67 | 256 | 2.0 | 7.0 | 0.00 | 0.00 | 0.00 | 83 | 1014.7 |
| 20260506142703 | 68 | 213 | 2.0 | 7.0 | 0.00 | 0.00 | 0.00 | 82 | 1014.6 |
| 20260506141804 | 67 | 123 | 2.0 | 8.0 | 0.00 | 0.00 | 0.00 | 83 | 1014.5 |
| 20260506140925 | 67 | 191 | 2.0 | 8.0 | 0.00 | 0.00 | 0.00 | 83 | 1014.7 |
| 20260506140003 | 66 | 173 | 1.0 | 6.0 | 0.00 | 0.00 | 0.00 | 84 | 1014.7 |
| 20260506135427 | 66 | 251 | 1.0 | 5.0 | 0.00 | 0.00 | 0.00 | 84 | 1014.8 |